FW8285 Weather Reports


Display with metric or nautical units.
time (UTC)temp
F
wind
direction
speed
MPH
gust
MPH
rain 1hr
in
rain 24hr
in
rain mn
in
humidity
%
barometer
mb
20260506073044 52 290 0.0 1.0 0.00 0.06 0.00 93 1007.8
20260506071541 52 290 0.0 2.0 0.00 0.06 0.00 93 1007.9
20260506061541 52 0 0.0 1.0 0.00 0.06 0.00 92 1008.0
20260506044636 53 277 1.0 4.0 0.00 0.06 0.00 91 1008.4
20260506043040 54 277 2.0 6.0 0.00 0.06 0.00 91 1008.3
20260506041536 55 263 2.0 8.0 0.00 0.06 0.00 90 1008.4
20260506040046 55 281 3.0 7.0 0.00 0.06 0.00 90 1008.8
20260506034619 55 0 1.0 7.0 0.00 0.06 0.06 91 1008.7
20260506033042 55 255 1.0 7.0 0.00 0.06 0.06 91 1008.5
20260506031543 56 0 1.0 8.0 0.01 0.06 0.06 91 1008.4
20260506030039 56 236 2.0 7.0 0.01 0.06 0.06 92 1008.2
20260506024537 57 293 3.0 7.0 0.01 0.06 0.06 93 1008.2
20260506023103 57 286 2.0 8.0 0.01 0.06 0.06 95 1008.3
20260506021542 58 0 1.0 4.0 0.00 0.05 0.05 96 1008.1
20260506020044 58 252 1.0 9.0 0.00 0.05 0.05 96 1007.9
20260506014538 58 0 0.0 0.0 0.00 0.05 0.05 96 1007.7
20260506013040 58 0 0.0 0.0 0.00 0.05 0.05 96 1007.2
20260506011537 58 0 0.0 0.0 0.00 0.05 0.05 96 1007.0
20260506010051 59 0 0.0 0.0 0.00 0.05 0.05 96 1006.6
20260506004600 59 0 0.0 0.0 0.00 0.05 0.05 96 1006.5
20260506003047 59 0 0.0 0.0 0.00 0.05 0.05 95 1006.8
20260506001540 59 0 0.0 0.0 0.00 0.05 0.05 95 1006.5
20260506000037 59 0 0.0 0.0 0.00 0.05 0.05 94 1006.2
20260505234606 60 0 0.0 0.0 0.00 0.05 0.05 94 1006.1
20260505233044 60 0 0.0 0.0 0.00 0.05 0.05 93 1005.8
20260505231543 60 0 0.0 0.0 0.00 0.05 0.05 94 1005.6
20260505230044 61 0 0.0 0.0 0.00 0.05 0.05 93 1005.5
20260505224546 60 0 0.0 0.0 0.03 0.05 0.05 93 1005.4
20260505223042 60 0 0.0 2.0 0.04 0.05 0.05 92 1005.4
20260505221540 60 0 0.0 0.0 0.04 0.05 0.05 91 1005.7
20260505220100 60 0 2.0 9.0 0.03 0.04 0.04 90 1006.1
20260505214541 61 243 3.0 8.0 0.01 0.02 0.02 86 1006.6
20260505213041 63 296 5.0 12.0 0.00 0.01 0.01 77 1006.4
20260505211546 64 283 2.0 10.0 0.00 0.01 0.01 73 1005.3
20260505210037 65 268 4.0 14.0 0.00 0.01 0.01 71 1004.9
20260505204537 67 318 6.0 16.0 0.00 0.01 0.01 66 1005.4
20260505203044 70 263 8.0 14.0 0.00 0.01 0.01 62 1004.3
20260505201542 72 273 3.0 9.0 0.00 0.01 0.01 60 1003.5
20260505200041 70 329 1.0 8.0 0.00 0.01 0.01 64 1003.5
20260505194544 69 298 2.0 9.0 0.00 0.01 0.01 66 1003.4
20260505193044 68 288 5.0 18.0 0.00 0.01 0.01 67 1003.0
20260505191550 74 252 9.0 20.0 0.00 0.01 0.01 52 1004.1
20260505190043 75 291 5.0 22.0 0.00 0.01 0.01 46 1002.8
20260505184543 77 277 6.0 17.0 0.00 0.01 0.01 41 1003.0
20260505183037 78 176 4.0 22.0 0.00 0.01 0.01 40 1002.7
20260505181537 79 153 3.0 13.0 0.00 0.01 0.01 41 1002.8
20260505180052 79 198 9.0 19.0 0.00 0.01 0.01 36 1002.9
20260505174605 79 154 6.0 17.0 0.00 0.01 0.01 38 1002.8
20260505173043 80 202 6.0 17.0 0.00 0.01 0.01 39 1003.1
20260505171540 80 298 6.0 15.0 0.00 0.01 0.01 39 1003.4
20260505170046 80 281 3.0 17.0 0.00 0.01 0.01 39 1003.8
20260505164541 80 187 4.0 15.0 0.00 0.01 0.01 40 1004.0
20260505163045 79 241 6.0 17.0 0.00 0.01 0.01 42 1003.9
20260505161548 79 243 11.0 22.0 0.00 0.01 0.01 42 1004.2
20260505153056 76 181 4.0 11.0 0.00 0.01 0.01 51 1004.9
20260505151545 74 180 3.0 12.0 0.00 0.01 0.01 53 1005.0
20260505124536 61 0 0.0 2.0 0.00 0.01 0.01 75 1006.0
20260505123056 61 0 0.0 2.0 0.00 0.01 0.01 75 1005.8
20260505121536 59 0 0.0 4.0 0.00 0.01 0.01 77 1006.1
20260505120045 58 0 0.0 5.0 0.01 0.01 0.01 78 1006.1
20260505114600 56 0 0.0 3.0 0.01 0.01 0.01 80 1006.2
20260505113040 55 0 1.0 6.0 0.01 0.01 0.01 84 1006.3
20260505111554 52 84 0.0 1.0 0.01 0.01 0.01 87 1006.0
20260505101544 51 0 0.0 2.0 0.00 0.00 0.00 85 1005.7
20260505100041 52 0 0.0 2.0 0.00 0.00 0.00 83 1005.8
20260505094539 52 42 0.0 2.0 0.00 0.00 0.00 77 1005.9
20260505093047 52 0 0.0 1.0 0.00 0.00 0.00 76 1005.6
20260505091543 52 0 0.0 2.0 0.00 0.00 0.00 75 1005.5
20260505090050 52 0 0.0 3.0 0.00 0.00 0.00 74 1005.4
20260505084541 53 0 0.0 3.0 0.00 0.00 0.00 74 1005.4
20260505083101 53 17 0.0 3.0 0.00 0.00 0.00 73 1005.6
20260505081547 53 0 0.0 3.0 0.00 0.00 0.00 74 1005.7
20260505080047 53 0 0.0 2.0 0.00 0.00 0.00 73 1005.7
20260505074545 53 0 0.0 2.0 0.00 0.00 0.00 73 1005.6